Total_Precipitation_Accumulation
1.94 2.12 1.97 1.74 1.69 1.65 1.95 2.36 2.65 2.38 2.06 1.87 1.73 1.71 1.76 1.83 2.03 1.85 1.89 1.87 1.66 1.46 1.32 1.25 1.21 1.18 1.15 1.20 1.30 1.33 1.38 1.49 1.70 1.93 2.15 2.44 2.75 3.07
2.14 2.16 2.03 1.83 1.91 1.75 1.82 2.15 2.42 2.63 2.35 1.73 1.73 1.67 1.76 1.64 1.90 1.75 1.88 1.89 1.64 1.49 1.34 1.27 1.20 1.15 1.11 1.12 1.19 1.27 1.29 1.28 1.35 1.47 1.61 1.72 1.85 2.05
2.27 2.20 2.12 2.12 2.13 1.96 2.03 2.17 2.23 2.51 2.49 1.93 1.80 1.87 1.95 1.89 1.95 1.87 1.80 1.83 1.66 1.61 1.39 1.27 1.19 1.12 1.11 1.09 1.10 1.10 1.14 1.15 1.17 1.21 1.29 1.35 1.38 1.43
2.59 2.70 2.45 2.40 2.39 2.20 2.21 2.20 2.23 2.41 2.44 2.25 2.07 2.06 2.09 2.04 2.02 1.84 1.56 1.48 1.53 1.68 1.54 1.38 1.25 1.15 1.09 1.06 1.06 1.04 1.04 1.07 1.10 1.11 1.13 1.17 1.22 1.24
2.48 2.70 2.70 2.79 2.53 2.50 2.42 2.32 2.26 2.21 2.38 2.24 2.04 2.22 2.21 2.18 2.12 1.76 1.60 1.63 1.46 1.68 1.64 1.40 1.24 1.16 1.08 1.02 0.98 0.97 0.97 0.99 1.03 1.07 1.07 1.04 1.05 1.06
2.25 2.35 2.47 2.74 2.72 2.74 2.56 2.55 2.57 2.54 2.60 2.47 2.34 2.42 2.56 2.57 2.43 2.06 1.89 1.77 1.63 1.45 1.55 1.38 1.29 1.21 1.12 1.02 0.97 0.94 0.94 0.95 0.97 0.99 1.03 1.04 1.02 0.99
2.24 2.20 2.18 2.40 2.47 2.50 2.26 2.40 2.61 2.64 2.65 2.58 2.54 2.59 2.62 2.75 2.44 2.20 2.04 2.00 1.86 1.62 1.53 1.31 1.26 1.19 1.19 1.20 1.13 1.03 0.96 0.95 0.98 1.00 1.00 1.00 1.02 1.05
2.46 2.38 2.25 2.18 2.17 2.21 2.24 2.30 2.41 2.41 2.45 2.49 2.44 2.47 2.55 2.66 2.78 2.62 2.38 2.18 1.94 1.69 1.69 1.48 1.36 1.31 1.21 1.11 1.20 1.16 1.06 0.99 0.95 0.97 1.00 1.02 1.03 1.02
2.40 2.39 2.11 1.97 2.15 2.09 2.25 2.26 2.11 2.03 2.02 2.12 2.14 2.17 2.59 2.87 3.15 2.85 2.63 2.40 2.10 1.91 1.83 1.55 1.41 1.32 1.18 1.13 1.25 1.10 1.02 0.96 0.92 0.93 0.96 0.97 0.99 1.00
2.01 2.13 2.09 2.00 2.03 2.12 2.07 1.86 1.69 1.68 1.69 1.59 1.62 1.87 2.27 2.81 3.10 3.07 3.04 2.78 2.44 2.03 1.79 1.54 1.32 1.24 1.16 1.15 1.27 1.17 1.05 0.97 0.93 0.90 0.85 0.86 0.91 0.96
1.79 1.80 1.85 1.74 1.85 1.91 1.85 1.65 1.52 1.48 1.49 1.50 1.47 1.64 1.91 2.23 2.62 2.82 2.73 2.52 2.15 1.75 1.56 1.44 1.30 1.31 1.24 1.14 1.14 1.27 1.17 1.08 1.03 0.97 0.93 0.92 0.93 1.00
1.90 1.89 1.97 1.75 1.66 1.59 1.53 1.55 1.38 1.29 1.41 1.40 1.36 1.39 1.49 1.75 2.15 2.24 2.24 2.29 2.05 1.74 1.44 1.45 1.35 1.48 1.39 1.15 1.07 1.11 1.15 1.21 1.20 1.14 1.09 1.09 1.13 1.01
1.68 1.61 1.66 1.68 1.47 1.31 1.30 1.28 1.21 1.25 1.33 1.30 1.24 1.22 1.35 1.47 1.62 1.88 2.02 2.02 1.93 1.62 1.42 1.56 1.45 1.48 1.47 1.21 1.09 1.05 1.06 1.08 1.13 1.21 1.26 1.25 1.24 1.15
1.69 1.70 1.74 1.77 1.51 1.35 1.20 1.08 1.10 1.09 1.10 1.18 1.16 1.12 1.17 1.26 1.46 1.72 1.98 2.05 1.95 1.81 1.77 1.80 1.69 1.60 1.57 1.39 1.21 1.10 1.10 1.13 1.18 1.22 1.27 1.45 1.42 1.39
1.68 1.98 1.99 1.93 1.71 1.42 1.31 1.29 1.20 1.07 1.08 1.10 1.08 1.05 1.09 1.25 1.53 1.82 2.04 2.21 2.15 1.97 1.88 1.81 1.79 1.80 1.82 1.59 1.37 1.28 1.28 1.25 1.20 1.23 1.29 1.33 1.35 1.41
1.63 1.89 2.03 2.04 1.92 1.72 1.61 1.52 1.31 1.21 1.27 1.25 1.27 1.31 1.41 1.55 1.70 1.83 2.03 2.17 2.23 2.04 1.93 1.87 1.88 1.99 1.93 1.76 1.65 1.51 1.41 1.39 1.36 1.42 1.48 1.48 1.45 1.41
1.77 1.96 2.11 2.21 2.21 2.13 2.02 1.93 1.80 1.64 1.49 1.45 1.51 1.51 1.55 1.64 1.70 1.84 2.06 2.15 2.09 1.88 1.83 1.90 1.98 2.08 2.09 2.02 1.79 1.49 1.41 1.36 1.35 1.47 1.53 1.47 1.39 1.35
1.72 1.83 2.06 2.25 2.33 2.41 2.45 2.33 2.11 1.93 1.77 1.74 1.68 1.65 1.67 1.68 1.73 1.88 2.10 2.20 2.07 1.89 1.82 1.83 2.03 2.19 2.20 2.04 1.73 1.49 1.38 1.31 1.26 1.34 1.39 1.37 1.25 1.14
1.56 1.68 1.79 1.91 2.10 2.32 2.42 2.41 2.20 2.07 2.09 2.04 1.94 1.89 1.90 1.91 1.91 2.02 2.20 2.31 2.25 2.10 2.02 2.01 2.07 2.11 1.98 1.64 1.36 1.27 1.28 1.23 1.27 1.28 1.26 1.25 1.19 1.13
1.31 1.47 1.64 1.79 1.95 2.22 2.39 2.43 2.36 2.29 2.29 2.31 2.27 2.20 2.17 2.12 2.03 1.98 2.11 2.23 2.26 2.24 2.19 2.09 1.96 1.94 1.90 1.73 1.57 1.39 1.31 1.36 1.38 1.39 1.34 1.33 1.31 1.36
1.26 1.30 1.37 1.54 1.74 1.99 2.25 2.42 2.42 2.31 2.24 2.29 2.28 2.21 2.19 2.20 2.10 2.00 2.06 2.24 2.30 2.27 2.11 1.89 1.78 1.98 2.15 2.28 2.04 1.61 1.43 1.44 1.51 1.52 1.53 1.61 1.52 1.45
1.36 1.37 1.46 1.60 1.76 1.98 2.18 2.29 2.34 2.33 2.28 2.25 2.20 2.14 2.12 2.12 2.00 1.95 1.96 2.05 2.09 2.12 2.08 2.05 2.21 2.35 2.36 2.31 2.00 1.69 1.57 1.59 1.68 1.76 1.71 1.61 1.51 1.39
1.47 1.47 1.52 1.61 1.78 1.97 2.10 2.20 2.23 2.27 2.30 2.29 2.24 2.15 2.10 2.08 2.03 2.00 1.99 2.02 2.01 2.04 2.18 2.26 2.26 2.34 2.30 2.24 2.15 2.01 1.88 1.81 1.81 1.77 1.61 1.50 1.40 1.30